Time,TemperatureF,DewpointF,PressureIn,WindDirection,WindDirectionDegrees,WindSpeedMPH,WindSpeedGustMPH,Humidity,HourlyPrecipIn,Conditions,Clouds,dailyrainin,SoftwareType,DateUTC
2013-06-14 00:02:00,54.0,-99.9,-100.00,North,-999,-999.0,-999.0,-999,0.02,,,0.19,,2013-06-14 04:02:00,
2013-06-14 00:12:00,54.0,-99.9,-100.00,North,-999,-999.0,-999.0,-999,0.02,,,0.19,,2013-06-14 04:12:00,
2013-06-14 00:23:00,54.0,-99.9,-100.00,North,-999,-999.0,-999.0,-999,0.02,,,0.19,,2013-06-14 04:23:00,
2013-06-14 00:30:00,54.0,-99.9,-100.00,North,-999,-999.0,-999.0,-999,0.01,,,0.20,,2013-06-14 04:30:00,
2013-06-14 01:02:00,54.0,-99.9,-100.00,North,-999,-999.0,-999.0,-999,0.01,,,0.20,,2013-06-14 05:02:00,
2013-06-14 01:12:00,54.0,-99.9,-100.00,North,-999,-999.0,-999.0,-999,0.01,,,0.20,,2013-06-14 05:12:00,
2013-06-14 01:22:00,54.0,-99.9,-100.00,North,-999,-999.0,-999.0,-999,0.01,,,0.20,,2013-06-14 05:22:00,
2013-06-14 01:30:00,54.0,-99.9,-100.00,North,-999,-999.0,-999.0,-999,0.00,,,0.20,,2013-06-14 05:30:00,
2013-06-14 02:02:00,54.0,-99.9,-100.00,North,-999,-999.0,-999.0,-999,0.00,,,0.20,,2013-06-14 06:02:00,
2013-06-14 02:12:00,54.0,-99.9,-100.00,North,-999,-999.0,-999.0,-999,0.00,,,0.20,,2013-06-14 06:12:00,
2013-06-14 02:23:00,54.0,-99.9,-100.00,North,-999,-999.0,-999.0,-999,0.00,,,0.20,,2013-06-14 06:23:00,
2013-06-14 02:30:00,54.0,-99.9,-100.00,North,-999,-999.0,-999.0,-999,0.00,,,0.20,,2013-06-14 06:30:00,
2013-06-14 03:02:00,54.0,-99.9,-100.00,North,-999,-999.0,-999.0,-999,0.00,,,0.20,,2013-06-14 07:02:00,
2013-06-14 03:12:00,54.0,-99.9,-100.00,North,-999,-999.0,-999.0,-999,0.00,,,0.20,,2013-06-14 07:12:00,
2013-06-14 03:22:00,54.0,-99.9,-100.00,North,-999,-999.0,-999.0,-999,0.00,,,0.20,,2013-06-14 07:22:00,
2013-06-14 03:30:00,54.0,-99.9,-100.00,North,-999,-999.0,-999.0,-999,0.00,,,0.20,,2013-06-14 07:30:00,
2013-06-14 03:53:00,54.0,-99.9,-100.00,North,-999,-999.0,-999.0,-999,0.00,,,0.20,,2013-06-14 07:53:00,
2013-06-14 04:02:00,54.0,-99.9,-100.00,North,-999,-999.0,-999.0,-999,0.00,,,0.20,,2013-06-14 08:02:00,
2013-06-14 04:12:00,54.0,-99.9,-100.00,North,-999,-999.0,-999.0,-999,0.00,,,0.20,,2013-06-14 08:12:00,
2013-06-14 04:23:00,54.0,-99.9,-100.00,North,-999,-999.0,-999.0,-999,0.00,,,0.20,,2013-06-14 08:23:00,
2013-06-14 04:30:00,54.0,-99.9,-100.00,North,-999,-999.0,-999.0,-999,0.00,,,0.20,,2013-06-14 08:30:00,
2013-06-14 05:02:00,54.0,-99.9,-100.00,North,-999,-999.0,-999.0,-999,0.00,,,0.20,,2013-06-14 09:02:00,
2013-06-14 05:12:00,54.0,-99.9,-100.00,North,-999,-999.0,-999.0,-999,0.00,,,0.20,,2013-06-14 09:12:00,
2013-06-14 05:22:00,54.0,-99.9,-100.00,North,-999,-999.0,-999.0,-999,0.00,,,0.20,,2013-06-14 09:22:00,
2013-06-14 05:30:00,54.0,-99.9,-100.00,North,-999,-999.0,-999.0,-999,0.00,,,0.20,,2013-06-14 09:30:00,
2013-06-14 06:02:00,54.0,-99.9,-100.00,North,-999,-999.0,-999.0,-999,0.00,,,0.20,,2013-06-14 10:02:00,
2013-06-14 06:12:00,54.0,-99.9,-100.00,North,-999,-999.0,-999.0,-999,0.00,,,0.20,,2013-06-14 10:12:00,
2013-06-14 06:22:00,54.0,-99.9,-100.00,North,-999,-999.0,-999.0,-999,0.00,,,0.20,,2013-06-14 10:22:00,
2013-06-14 06:30:00,54.0,-99.9,-100.00,North,-999,-999.0,-999.0,-999,0.00,,,0.20,,2013-06-14 10:30:00,
2013-06-14 07:02:00,54.0,-99.9,-100.00,North,-999,-999.0,-999.0,-999,0.00,,,0.20,,2013-06-14 11:02:00,
2013-06-14 07:12:00,54.0,-99.9,-100.00,North,-999,-999.0,-999.0,-999,0.00,,,0.20,,2013-06-14 11:12:00,
2013-06-14 07:23:00,54.0,-99.9,-100.00,North,-999,-999.0,-999.0,-999,0.00,,,0.20,,2013-06-14 11:23:00,
2013-06-14 07:30:00,55.0,-99.9,-100.00,North,-999,-999.0,-999.0,-999,0.00,,,0.20,,2013-06-14 11:30:00,
2013-06-14 08:02:00,55.0,-99.9,-100.00,North,-999,-999.0,-999.0,-999,0.00,,,0.20,,2013-06-14 12:02:00,
2013-06-14 08:12:00,55.0,-99.9,-100.00,North,-999,-999.0,-999.0,-999,0.00,,,0.20,,2013-06-14 12:12:00,
2013-06-14 08:23:00,55.0,-99.9,-100.00,North,-999,-999.0,-999.0,-999,0.00,,,0.20,,2013-06-14 12:23:00,
2013-06-14 08:30:00,56.0,-99.9,-100.00,North,-999,-999.0,-999.0,-999,0.00,,,0.20,,2013-06-14 12:30:00,
2013-06-14 09:02:00,56.0,-99.9,-100.00,North,-999,-999.0,-999.0,-999,0.00,,,0.20,,2013-06-14 13:02:00,
2013-06-14 09:12:00,56.0,-99.9,-100.00,North,-999,-999.0,-999.0,-999,0.00,,,0.20,,2013-06-14 13:12:00,
2013-06-14 09:23:00,56.0,-99.9,-100.00,North,-999,-999.0,-999.0,-999,0.00,,,0.20,,2013-06-14 13:23:00,
2013-06-14 09:30:00,58.0,-99.9,-100.00,North,-999,-999.0,-999.0,-999,0.00,,,0.20,,2013-06-14 13:30:00,
2013-06-14 10:03:00,58.0,-99.9,-100.00,North,-999,-999.0,-999.0,-999,0.00,,,0.20,,2013-06-14 14:03:00,
2013-06-14 10:12:00,58.0,-99.9,-100.00,North,-999,-999.0,-999.0,-999,0.00,,,0.20,,2013-06-14 14:12:00,
2013-06-14 10:23:00,58.0,-99.9,-100.00,North,-999,-999.0,-999.0,-999,0.00,,,0.20,,2013-06-14 14:23:00,
2013-06-14 10:30:00,63.0,-99.9,-100.00,North,-999,-999.0,-999.0,-999,0.00,,,-99.99,,2013-06-14 14:30:00,
2013-06-14 11:02:00,63.0,-99.9,-100.00,North,-999,-999.0,-999.0,-999,0.00,,,-99.99,,2013-06-14 15:02:00,
2013-06-14 11:12:00,63.0,-99.9,-100.00,North,-999,-999.0,-999.0,-999,0.00,,,-99.99,,2013-06-14 15:12:00,
2013-06-14 11:23:00,63.0,-99.9,-100.00,North,-999,-999.0,-999.0,-999,0.00,,,-99.99,,2013-06-14 15:23:00,
2013-06-14 11:30:00,67.0,-99.9,-100.00,North,-999,-999.0,-999.0,-999,0.00,,,0.20,,2013-06-14 15:30:00,
2013-06-14 12:02:00,67.0,-99.9,-100.00,North,-999,-999.0,-999.0,-999,0.00,,,0.20,,2013-06-14 16:02:00,
2013-06-14 12:12:00,67.0,-99.9,-100.00,North,-999,-999.0,-999.0,-999,0.00,,,0.20,,2013-06-14 16:12:00,
2013-06-14 12:23:00,67.0,-99.9,-100.00,North,-999,-999.0,-999.0,-999,0.00,,,0.20,,2013-06-14 16:23:00,
2013-06-14 12:30:00,70.0,-99.9,-100.00,North,-999,-999.0,-999.0,-999,0.00,,,0.20,,2013-06-14 16:30:00,
2013-06-14 13:02:00,70.0,-99.9,-100.00,North,-999,-999.0,-999.0,-999,0.00,,,0.20,,2013-06-14 17:02:00,
2013-06-14 13:12:00,70.0,-99.9,-100.00,North,-999,-999.0,-999.0,-999,0.00,,,0.20,,2013-06-14 17:12:00,
2013-06-14 13:23:00,70.0,-99.9,-100.00,North,-999,-999.0,-999.0,-999,0.00,,,0.20,,2013-06-14 17:23:00,
2013-06-14 13:30:00,73.0,-99.9,-100.00,North,-999,-999.0,-999.0,-999,0.00,,,0.20,,2013-06-14 17:30:00,
2013-06-14 14:02:00,73.0,-99.9,-100.00,North,-999,-999.0,-999.0,-999,0.00,,,0.20,,2013-06-14 18:02:00,
2013-06-14 14:12:00,73.0,-99.9,-100.00,North,-999,-999.0,-999.0,-999,0.00,,,0.20,,2013-06-14 18:12:00,
2013-06-14 14:22:00,73.0,-99.9,-100.00,North,-999,-999.0,-999.0,-999,0.00,,,0.20,,2013-06-14 18:22:00,
2013-06-14 14:30:00,74.0,-99.9,-100.00,North,-999,-999.0,-999.0,-999,0.00,,,0.20,,2013-06-14 18:30:00,
2013-06-14 15:02:00,74.0,-99.9,-100.00,North,-999,-999.0,-999.0,-999,0.00,,,0.20,,2013-06-14 19:02:00,
2013-06-14 15:12:00,74.0,-99.9,-100.00,North,-999,-999.0,-999.0,-999,0.00,,,0.20,,2013-06-14 19:12:00,
2013-06-14 15:22:00,74.0,-99.9,-100.00,North,-999,-999.0,-999.0,-999,0.00,,,0.20,,2013-06-14 19:22:00,
2013-06-14 15:30:00,74.0,-99.9,-100.00,North,-999,-999.0,-999.0,-999,0.00,,,0.20,,2013-06-14 19:30:00,
2013-06-14 16:02:00,74.0,-99.9,-100.00,North,-999,-999.0,-999.0,-999,0.00,,,0.20,,2013-06-14 20:02:00,
2013-06-14 16:12:00,74.0,-99.9,-100.00,North,-999,-999.0,-999.0,-999,0.00,,,0.20,,2013-06-14 20:12:00,
2013-06-14 16:22:00,74.0,-99.9,-100.00,North,-999,-999.0,-999.0,-999,0.00,,,0.20,,2013-06-14 20:22:00,
2013-06-14 16:30:00,73.0,-99.9,-100.00,North,-999,-999.0,-999.0,-999,0.00,,,0.18,,2013-06-14 20:30:00,
2013-06-14 17:02:00,73.0,-99.9,-100.00,North,-999,-999.0,-999.0,-999,0.00,,,0.18,,2013-06-14 21:02:00,
2013-06-14 17:12:00,73.0,-99.9,-100.00,North,-999,-999.0,-999.0,-999,0.00,,,0.18,,2013-06-14 21:12:00,
2013-06-14 17:22:00,73.0,-99.9,-100.00,North,-999,-999.0,-999.0,-999,0.00,,,0.18,,2013-06-14 21:22:00,
2013-06-14 17:30:00,74.0,-99.9,-100.00,North,-999,-999.0,-999.0,-999,0.00,,,0.14,,2013-06-14 21:30:00,
2013-06-14 18:02:00,74.0,-99.9,-100.00,North,-999,-999.0,-999.0,-999,0.00,,,0.14,,2013-06-14 22:02:00,
2013-06-14 18:12:00,74.0,-99.9,-100.00,North,-999,-999.0,-999.0,-999,0.00,,,0.14,,2013-06-14 22:12:00,
2013-06-14 18:23:00,74.0,-99.9,-100.00,North,-999,-999.0,-999.0,-999,0.00,,,0.14,,2013-06-14 22:23:00,
2013-06-14 18:30:00,75.0,-99.9,-100.00,North,-999,-999.0,-999.0,-999,0.00,,,0.09,,2013-06-14 22:30:00,
2013-06-14 18:53:00,75.0,-99.9,-100.00,North,-999,-999.0,-999.0,-999,0.00,,,0.09,,2013-06-14 22:53:00,
2013-06-14 19:02:00,75.0,-99.9,-100.00,North,-999,-999.0,-999.0,-999,0.00,,,0.09,,2013-06-14 23:02:00,
2013-06-14 19:12:00,75.0,-99.9,-100.00,North,-999,-999.0,-999.0,-999,0.00,,,0.09,,2013-06-14 23:12:00,
2013-06-14 19:22:00,75.0,-99.9,-100.00,North,-999,-999.0,-999.0,-999,0.00,,,0.09,,2013-06-14 23:22:00,
2013-06-14 19:30:00,73.0,-99.9,-100.00,North,-999,-999.0,-999.0,-999,0.00,,,0.07,,2013-06-14 23:30:00,
2013-06-14 19:53:00,73.0,-99.9,-100.00,North,-999,-999.0,-999.0,-999,0.00,,,0.07,,2013-06-14 23:53:00,
2013-06-14 20:02:00,73.0,-99.9,-100.00,North,-999,-999.0,-999.0,-999,0.00,,,0.07,,2013-06-15 00:02:00,
2013-06-14 20:12:00,73.0,-99.9,-100.00,North,-999,-999.0,-999.0,-999,0.00,,,0.07,,2013-06-15 00:12:00,
2013-06-14 20:23:00,73.0,-99.9,-100.00,North,-999,-999.0,-999.0,-999,0.00,,,0.07,,2013-06-15 00:23:00,
2013-06-14 20:30:00,67.0,-99.9,-100.00,North,-999,-999.0,-999.0,-999,0.00,,,0.06,,2013-06-15 00:30:00,
2013-06-14 20:53:00,67.0,-99.9,-100.00,North,-999,-999.0,-999.0,-999,0.00,,,0.06,,2013-06-15 00:53:00,
2013-06-14 21:02:00,67.0,-99.9,-100.00,North,-999,-999.0,-999.0,-999,0.00,,,0.06,,2013-06-15 01:02:00,
2013-06-14 21:12:00,67.0,-99.9,-100.00,North,-999,-999.0,-999.0,-999,0.00,,,0.06,,2013-06-15 01:12:00,
2013-06-14 21:22:00,67.0,-99.9,-100.00,North,-999,-999.0,-999.0,-999,0.00,,,0.06,,2013-06-15 01:22:00,
2013-06-14 21:30:00,62.0,-99.9,-100.00,North,-999,-999.0,-999.0,-999,0.00,,,0.04,,2013-06-15 01:30:00,
2013-06-14 21:54:00,62.0,-99.9,-100.00,North,-999,-999.0,-999.0,-999,0.00,,,0.04,,2013-06-15 01:54:00,
2013-06-14 22:02:00,62.0,-99.9,-100.00,North,-999,-999.0,-999.0,-999,0.00,,,0.04,,2013-06-15 02:02:00,
2013-06-14 22:12:00,62.0,-99.9,-100.00,North,-999,-999.0,-999.0,-999,0.00,,,0.04,,2013-06-15 02:12:00,
2013-06-14 22:23:00,62.0,-99.9,-100.00,North,-999,-999.0,-999.0,-999,0.00,,,0.04,,2013-06-15 02:23:00,
2013-06-14 22:30:00,62.0,-99.9,-100.00,North,-999,-999.0,-999.0,-999,0.00,,,0.03,,2013-06-15 02:30:00,
2013-06-14 23:02:00,62.0,-99.9,-100.00,North,-999,-999.0,-999.0,-999,0.00,,,0.03,,2013-06-15 03:02:00,
2013-06-14 23:11:00,62.0,-99.9,-100.00,North,-999,-999.0,-999.0,-999,0.00,,,0.03,,2013-06-15 03:11:00,
2013-06-14 23:24:00,62.0,-99.9,-100.00,North,-999,-999.0,-999.0,-999,0.00,,,0.03,,2013-06-15 03:24:00,
2013-06-14 23:30:00,58.0,-99.9,-100.00,North,-999,-999.0,-999.0,-999,0.00,,,0.01,,2013-06-15 03:30:00,